Vorticity
7 15 16 14 12 10 10 9 7 7 6 11 9 7 11 17 13 7 10 7 8 14 6 -5 6 23 17 28 52 -25 -8 16 33 -7 -14 19 9 28
17 15 14 11 9 10 9 8 7 10 15 9 9 10 15 15 8 9 8 7 8 12 22 16 8 1 5 41 28 27 19 15 1 10 11 16 12 16
14 13 10 9 9 7 11 9 12 14 11 11 10 15 16 11 10 9 7 4 6 7 4 8 20 20 9 -1 13 28 34 26 19 11 14 14 10 8
12 11 9 9 9 11 13 13 14 10 10 11 14 16 11 12 7 6 6 6 5 4 5 5 6 9 18 14 10 4 2 5 9 8 11 7 9 7
11 7 7 10 16 15 12 9 10 11 11 13 13 12 12 8 8 7 8 7 6 5 3 4 6 5 5 8 12 17 17 9 5 4 7 6 3 7
6 11 17 15 11 8 10 11 11 10 12 12 11 12 8 8 8 8 7 7 7 7 6 6 5 6 6 6 6 7 6 6 8 11 12 13 13 11
14 15 12 11 10 10 10 11 11 11 11 12 11 11 9 9 9 8 7 8 7 7 8 8 7 7 7 7 7 7 5 7 8 8 8 5 5 7
15 10 9 9 9 9 11 13 12 12 12 12 11 10 9 10 9 6 10 10 10 10 9 9 9 9 8 7 7 9 7 8 9 8 8 9 9 8
10 8 8 10 11 11 11 11 13 13 14 13 12 13 11 8 4 6 11 10 9 9 9 9 8 9 9 9 10 11 10 9 9 9 9 10 10 10
6 9 10 6 9 9 9 6 8 8 7 8 8 8 10 11 10 10 9 8 9 9 9 9 10 11 11 11 11 10 9 9 9 8 7 7 9 12
10 10 10 7 6 4 4 6 8 9 9 9 7 6 8 10 9 9 8 9 10 9 8 9 10 10 10 10 9 10 11 9 7 7 6 5 7 8
10 8 8 9 10 12 12 9 9 10 10 10 11 11 11 11 10 11 11 9 9 10 8 8 8 8 9 12 10 11 11 9 6 5 5 10 13 11
8 9 2 9 9 11 11 9 9 8 7 8 9 10 12 12 11 11 11 11 9 7 6 6 6 10 12 13 14 13 12 9 5 7 14 17 13 12
10 1 1 8 8 7 7 7 7 8 9 13 13 10 11 10 7 6 6 6 6 7 11 15 16 18 17 17 13 12 7 9 18 22 12 9 10 12
7 6 7 9 8 5 7 8 8 11 9 7 8 7 4 6 7 7 7 11 16 13 10 13 15 14 16 13 13 18 22 19 10 10 10 18 27 27
10 9 9 11 9 7 7 8 9 8 9 9 6 7 8 8 9 12 15 7 8 7 4 12 18 14 19 17 19 13 10 9 10 13 21 18 19 10
8 7 10 11 10 8 8 8 9 8 6 6 5 5 9 13 15 5 7 4 3 2 5 5 16 17 19 18 12 15 10 10 15 15 18 15 13 11
4 6 10 11 8 7 9 9 6 8 7 6 8 13 19 7 5 4 3 4 7 14 7 7 11 18 19 18 11 11 11 14 14 15 13 15 13 14
4 7 11 10 6 8 8 7 8 9 6 9 12 17 3 3 4 7 10 9 10 11 10 12 14 18 23 12 10 10 12 13 12 16 15 13 11 11
6 10 11 9 7 8 8 9 6 9 12 12 14 6 2 4 9 12 10 9 12 15 15 15 18 23 15 10 12 11 11 13 17 14 11 23 34 33
11 10 9 8 10 8 7 8 8 12 13 10 6 2 8 11 10 8 7 15 28 28 23 20 19 18 10 10 12 12 12 19 13 17 28 29 22 15
7 6 8 9 13 8 6 4 14 14 11 5 4 10 9 11 6 8 19 25 23 23 21 19 17 10 9 10 12 14 20 11 13 16 22 24 28 28
4 3 3 6 11 7 6 19 14 7 4 5 11 8 10 8 8 18 16 13 14 15 19 15 9 8 11 11 12 19 20 12 14 10 10 9 11 10
Height
5755 5751 5748 5745 5742 5739 5736 5733 5730 5728 5724 5720 5717 5712 5708 5705 5701 5699 5696 5692 5688 5683 5679 5675 5671 5665 5658 5653 5649 5654 5651 5656 5659 5662 5664 5666 5669 5672
5744 5740 5737 5735 5732 5730 5726 5724 5721 5718 5715 5711 5707 5704 5699 5696 5694 5692 5688 5685 5681 5677 5673 5669 5665 5661 5656 5650 5647 5646 5647 5649 5650 5653 5656 5658 5661 5664
5733 5731 5728 5725 5722 5720 5717 5714 5711 5708 5705 5701 5698 5694 5691 5689 5686 5684 5681 5678 5675 5671 5667 5664 5660 5657 5654 5650 5646 5643 5643 5643 5644 5646 5648 5651 5655 5657
5723 5720 5719 5716 5713 5711 5708 5705 5701 5698 5695 5692 5688 5685 5683 5681 5678 5676 5673 5671 5668 5665 5661 5658 5655 5652 5650 5647 5645 5643 5642 5640 5639 5641 5642 5646 5647 5648
5714 5712 5710 5707 5704 5702 5699 5696 5693 5689 5686 5682 5679 5677 5675 5673 5671 5669 5666 5663 5660 5658 5654 5651 5649 5646 5643 5642 5641 5640 5639 5638 5637 5637 5636 5638 5639 5640
5704 5702 5700 5698 5694 5692 5690 5687 5684 5680 5677 5674 5672 5669 5667 5665 5663 5661 5658 5655 5653 5650 5647 5644 5642 5640 5637 5635 5633 5632 5632 5631 5631 5630 5630 5629 5630 5631
5695 5693 5691 5689 5686 5684 5682 5678 5675 5672 5669 5667 5665 5662 5660 5658 5655 5653 5650 5648 5645 5641 5639 5636 5634 5632 5630 5627 5625 5623 5621 5619 5619 5619 5620 5620 5620 5620
5686 5684 5683 5681 5679 5676 5673 5671 5668 5665 5662 5659 5656 5654 5651 5649 5647 5645 5642 5639 5637 5633 5630 5627 5624 5622 5620 5617 5615 5613 5612 5610 5609 5608 5608 5607 5607 5607
5677 5676 5674 5672 5671 5668 5665 5663 5660 5658 5655 5652 5649 5646 5644 5641 5639 5636 5633 5630 5627 5624 5620 5618 5615 5612 5608 5606 5603 5602 5600 5599 5597 5596 5594 5594 5593 5593
5669 5668 5666 5665 5663 5660 5658 5655 5653 5650 5647 5644 5642 5639 5636 5633 5629 5626 5624 5621 5617 5614 5610 5607 5604 5600 5597 5594 5591 5588 5586 5584 5583 5581 5579 5577 5576 5575
5661 5660 5659 5657 5655 5653 5650 5647 5644 5642 5639 5635 5632 5629 5626 5622 5619 5616 5613 5610 5606 5602 5599 5595 5592 5589 5585 5581 5577 5575 5572 5570 5567 5565 5563 5561 5559 5558
5654 5653 5651 5649 5646 5643 5641 5638 5635 5632 5629 5626 5622 5619 5616 5612 5609 5606 5602 5598 5595 5591 5587 5583 5580 5576 5572 5566 5562 5558 5556 5553 5550 5548 5545 5543 5541 5539
5646 5645 5643 5640 5637 5634 5632 5629 5626 5623 5620 5616 5613 5609 5606 5602 5598 5594 5591 5587 5583 5579 5575 5570 5565 5561 5556 5550 5545 5542 5539 5536 5533 5530 5527 5524 5521 5519
5638 5637 5634 5631 5629 5626 5624 5620 5617 5614 5610 5606 5603 5599 5595 5591 5587 5583 5579 5574 5570 5566 5561 5555 5549 5543 5538 5532 5527 5523 5521 5518 5515 5511 5508 5505 5503 5500
5630 5627 5625 5622 5620 5617 5614 5611 5608 5604 5600 5597 5593 5589 5585 5580 5576 5571 5566 5561 5556 5551 5546 5540 5534 5527 5521 5515 5510 5504 5501 5498 5496 5494 5490 5487 5482 5480
5620 5618 5615 5613 5610 5608 5605 5602 5598 5595 5591 5587 5583 5578 5574 5568 5563 5558 5553 5548 5543 5538 5532 5526 5518 5511 5504 5498 5493 5487 5484 5482 5476 5474 5473 5469 5465 5463
5611 5609 5606 5603 5601 5599 5596 5592 5588 5585 5580 5576 5571 5567 5562 5556 5551 5546 5541 5534 5528 5522 5516 5510 5504 5496 5489 5482 5477 5472 5468 5464 5460 5456 5454 5451 5447 5444
5602 5599 5597 5594 5592 5589 5585 5582 5578 5573 5569 5564 5559 5554 5549 5544 5540 5534 5527 5520 5512 5505 5498 5492 5487 5481 5475 5468 5462 5457 5452 5448 5444 5440 5436 5434 5432 5426
5591 5589 5586 5584 5581 5578 5574 5570 5566 5562 5557 5552 5547 5542 5538 5532 5526 5519 5512 5504 5495 5488 5481 5475 5469 5465 5458 5453 5448 5440 5437 5433 5429 5425 5420 5417 5417 5410
5580 5578 5575 5572 5569 5566 5562 5558 5554 5549 5544 5539 5535 5530 5525 5519 5512 5504 5496 5488 5479 5470 5463 5457 5453 5449 5444 5440 5434 5426 5423 5418 5412 5409 5404 5400 5398 5394
5569 5566 5564 5561 5558 5555 5551 5546 5541 5536 5532 5527 5523 5518 5512 5505 5497 5489 5480 5471 5462 5454 5447 5441 5438 5434 5430 5426 5421 5415 5408 5402 5399 5396 5392 5387 5383 5382
5558 5555 5553 5550 5547 5543 5539 5534 5529 5525 5520 5516 5511 5505 5498 5491 5483 5474 5464 5456 5447 5440 5434 5429 5425 5421 5417 5413 5408 5403 5397 5390 5385 5385 5379 5377 5375 5373
5546 5544 5541 5538 5534 5531 5526 5522 5517 5513 5509 5504 5497 5491 5484 5476 5468 5459 5450 5442 5435 5428 5423 5418 5413 5409 5404 5399 5395 5391 5386 5380 5377 5376 5370 5369 5368 5367